Location: Rio de Janeiro
(22.9068°S, 43.1729°W)
Time: 01:48:17
(UTC-03:00)

METEOR M2 - Visible Passes

Search period start: 16 April 2024 00:00
Search period end: 26 April 2024 00:00
Orbit: 818 x 826 km, 98.4° (Epoch: 15 April)

Date Brightness Start Highest point End Pass type
(mag) Time Alt. Az. Time Alt. Az. Time Alt. Az.
16 Apr ? 04:30:23 10° NNE 04:35:34 54° ESE 04:40:49 10° S visible
16 Apr ? 18:40:22 10° SW 18:42:43 13° WSW 18:45:04 10° W visible
17 Apr ? 04:10:48 10° NE 04:15:31 33° ESE 04:20:18 10° S visible
17 Apr ? 18:18:46 10° SSW 18:22:47 21° WSW 18:26:46 10° WNW visible
18 Apr ? 03:51:41 10° ENE 03:55:32 20° ESE 03:59:24 10° SSE visible
18 Apr ? 05:30:36 10° NNW 05:35:21 33° W 05:40:11 10° SW visible
18 Apr ? 17:57:56 10° S 18:02:47 34° WSW 18:07:37 10° NW visible
19 Apr ? 03:33:33 10° E 03:35:36 12° ESE 03:37:38 10° SE visible
19 Apr ? 05:09:57 10° N 05:15:10 55° W 05:20:28 10° SSW visible
20 Apr ? 04:49:41 10° NNE 04:55:02 89° E 05:00:27 10° SSW visible
21 Apr ? 04:29:45 10° NNE 04:34:56 54° ESE 04:40:12 10° S visible
21 Apr ? 18:39:45 10° SW 18:42:06 13° WSW 18:44:26 10° W visible
22 Apr ? 04:10:10 10° NE 04:14:54 33° ESE 04:19:40 10° S visible
22 Apr ? 18:18:09 10° SSW 18:22:10 21° WSW 18:26:09 10° WNW visible
23 Apr ? 03:51:03 10° ENE 03:54:54 20° ESE 03:58:46 10° SSE visible
23 Apr ? 05:29:58 10° NNW 05:34:43 33° W 05:39:33 10° SW visible
23 Apr ? 17:57:17 10° S 18:02:09 34° WSW 18:06:59 10° NW visible
24 Apr ? 03:32:55 10° E 03:34:57 12° ESE 03:37:01 10° SE visible
24 Apr ? 05:09:20 10° N 05:14:32 55° W 05:19:50 10° SSW visible
25 Apr ? 04:49:03 10° NNE 04:54:24 89° ESE 04:59:49 10° SSW visible
